Weather History for Camdenton, MO

Change the Weather History Date:

Saturday, June 22, 2013

  Actual Average (KAIZ) Record (KAIZ)
Temperature  
Mean Temperature 79 °F -  
Max Temperature 89 °F 81 °F 91 °F (2005)
Min Temperature 69 °F 61 °F 55 °F (2001)
Cooling Degree Days 14    
Growing Degree Days 29 (Base 50)    
Moisture  
Dew Point 70 °F    
Average Humidity 73    
Maximum Humidity 100    
Minimum Humidity 49    
Precipitation  
Precipitation 0.00 in - - ()
Sea Level Pressure  
Sea Level Pressure 30.04 in    
Wind  
Wind Speed 8 mph (SSE)    
Max Wind Speed 13 mph    
Max Gust Speed 18 mph    
Visibility 10 miles    
Events      
Averages and records for this station are not official NWS values.
T = Trace of Precipitation, MM = Missing Value Source: NWS Daily Summary

Daily Weather History Graph

Daily Weather History Graph

Search for Another Location

Airport:

Trip Planner

Search our weather history database for the weather conditions in past years. The results will help you decide how hot, cold, wet, or windy it might be!

Date:

Astronomy

Jun. 22, 2013 Rise Set
Actual Time 5:48 AM CDT 8:36 PM CDT
Civil Twilight 5:17 AM CDT 9:08 PM CDT
Nautical Twilight 4:37 AM CDT 9:47 PM CDT
Astronomical Twilight 3:52 AM CDT 10:32 PM CDT
Moon 7:53 PM CDT (6/22) 5:00 AM CDT (6/22)
Length of Visible Light 15h 51m
Length of Day
14h 48m
Waxing Gibbous, 99% of the Moon is Illuminated
Jun 22
Waxing Gibbous
Jun 23
Full
Jun 29
Last Quarter
Jul 8
New
Jul 15
First Quarter

Hourly Weather History & Observations

Time (CDT) Temp. Heat Index Dew Point Humidity Pressure Visibility Wind Dir Wind Speed Gust Speed Precip Events Conditions
12:15 AM 77.0 °F - 71.6 °F 83% 30.04 in 10.0 mi SSE 10.4 mph - N/A   Clear
12:35 AM 78.8 °F - 69.8 °F 74% 30.04 in 10.0 mi SSE 11.5 mph 18.4 mph N/A   Clear
12:55 AM 78.8 °F - 69.8 °F 74% 30.04 in 10.0 mi SSE 10.4 mph 17.3 mph N/A   Clear
1:15 AM 78.8 °F - 69.8 °F 74% 30.03 in 10.0 mi South 9.2 mph - N/A   Clear
1:35 AM 78.8 °F - 69.8 °F 74% 30.03 in 10.0 mi South 10.4 mph - N/A   Clear
1:55 AM 77.0 °F - 69.8 °F 78% 30.03 in 10.0 mi South 5.8 mph - N/A   Clear
2:15 AM 77.0 °F - 69.8 °F 78% 30.03 in 10.0 mi South 6.9 mph - N/A   Clear
2:35 AM 75.2 °F - 69.8 °F 83% 30.04 in 10.0 mi SE 5.8 mph - N/A   Clear
2:55 AM 73.4 °F - 69.8 °F 88% 30.02 in 7.0 mi SE 6.9 mph - N/A   Clear
3:15 AM 73.4 °F - 69.8 °F 88% 30.03 in 10.0 mi SSE 4.6 mph - N/A   Clear
3:35 AM 73.4 °F - 69.8 °F 88% 30.03 in 10.0 mi SE 6.9 mph - N/A   Clear
3:55 AM 71.6 °F - 69.8 °F 94% 30.03 in 7.0 mi SE 4.6 mph - N/A   Clear
4:15 AM 71.6 °F - 69.8 °F 94% 30.03 in 10.0 mi SE 5.8 mph - N/A   Clear
4:35 AM 71.6 °F - 69.8 °F 94% 30.03 in 10.0 mi SE 5.8 mph - N/A   Clear
4:55 AM 71.6 °F - 69.8 °F 94% 30.03 in 10.0 mi SE 8.1 mph - N/A   Clear
5:15 AM 71.6 °F - 69.8 °F 94% 30.04 in 7.0 mi SE 5.8 mph - N/A   Clear
5:35 AM 71.6 °F - 69.8 °F 94% 30.05 in 7.0 mi ESE 6.9 mph - N/A   Clear
5:55 AM 71.6 °F - 69.8 °F 94% 30.06 in 7.0 mi SE 6.9 mph - N/A   Clear
6:15 AM 69.8 °F - 69.8 °F 100% 30.07 in 5.0 mi ESE 5.8 mph - N/A   Clear
6:35 AM 71.6 °F - 71.6 °F 100% 30.07 in 7.0 mi SE 6.9 mph - N/A   Clear
6:55 AM 73.4 °F - 71.6 °F 94% 30.07 in 7.0 mi SE 8.1 mph - N/A   Clear
7:15 AM 73.4 °F - 71.6 °F 94% 30.08 in 7.0 mi SE 8.1 mph - N/A   Clear
7:35 AM 73.4 °F - 71.6 °F 94% 30.08 in 10.0 mi SSE 5.8 mph - N/A   Clear
7:55 AM 75.2 °F - 71.6 °F 89% 30.08 in 10.0 mi SSE 9.2 mph - N/A   Clear
8:15 AM 77.0 °F - 71.6 °F 83% 30.07 in 10.0 mi SSE 10.4 mph - N/A   Clear
8:35 AM 77.0 °F - 71.6 °F 83% 30.07 in 10.0 mi SSE 9.2 mph - N/A   Clear
8:55 AM 78.8 °F - 73.4 °F 83% 30.08 in 10.0 mi SE 8.1 mph - N/A   Clear
9:15 AM 80.6 °F 85.4 °F 73.4 °F 79% 30.09 in 10.0 mi SSE 8.1 mph - N/A   Clear
9:35 AM 80.6 °F 85.4 °F 73.4 °F 79% 30.09 in 10.0 mi SSE 6.9 mph - N/A   Clear
9:55 AM 82.4 °F 87.2 °F 71.6 °F 70% 30.09 in 10.0 mi South 8.1 mph - N/A   Clear
10:15 AM 82.4 °F 87.2 °F 71.6 °F 70% 30.09 in 10.0 mi SSE 12.7 mph - N/A   Clear
10:35 AM 82.4 °F 87.2 °F 71.6 °F 70% 30.09 in 10.0 mi SSE 9.2 mph - N/A   Clear
10:55 AM 84.2 °F 89.6 °F 71.6 °F 66% 30.09 in 10.0 mi South 8.1 mph - N/A   Clear
11:15 AM 86.0 °F 91.8 °F 71.6 °F 62% 30.09 in 10.0 mi SSE 10.4 mph - N/A   Clear
11:35 AM 86.0 °F 90.4 °F 69.8 °F 58% 30.10 in 10.0 mi South 8.1 mph 16.1 mph N/A   Clear
11:55 AM 86.0 °F 90.4 °F 69.8 °F 58% 30.09 in 10.0 mi SSE 8.1 mph - N/A   Scattered Clouds
12:15 PM 87.8 °F 92.6 °F 69.8 °F 55% 30.09 in 10.0 mi South 10.4 mph - N/A   Clear
12:35 PM 86.0 °F 90.4 °F 69.8 °F 58% 30.09 in 10.0 mi South 5.8 mph - N/A   Clear
12:55 PM 87.8 °F 92.6 °F 69.8 °F 55% 30.09 in 10.0 mi South 5.8 mph - N/A   Clear
1:15 PM 87.8 °F 92.6 °F 69.8 °F 55% 30.09 in 10.0 mi SE 8.1 mph - N/A   Clear
1:35 PM 87.8 °F 92.6 °F 69.8 °F 55% 30.08 in 10.0 mi South 4.6 mph - N/A   Clear
1:55 PM 87.8 °F 93.8 °F 71.6 °F 58% 30.07 in 10.0 mi SE 8.1 mph - N/A   Scattered Clouds
2:15 PM 87.8 °F 92.6 °F 69.8 °F 55% 30.07 in 10.0 mi SSW 9.2 mph - N/A   Scattered Clouds
2:35 PM 87.8 °F 92.6 °F 69.8 °F 55% 30.05 in 10.0 mi South 8.1 mph - N/A   Scattered Clouds
2:55 PM 87.8 °F 92.6 °F 69.8 °F 55% 30.04 in 10.0 mi SSE 6.9 mph - N/A   Mostly Cloudy
3:15 PM 89.6 °F 94.7 °F 69.8 °F 52% 30.02 in 10.0 mi SE 6.9 mph - N/A   Scattered Clouds
3:35 PM 87.8 °F 92.6 °F 69.8 °F 55% 30.02 in 10.0 mi SE 8.1 mph - N/A   Mostly Cloudy
3:55 PM 87.8 °F 92.6 °F 69.8 °F 55% 30.01 in 10.0 mi South 9.2 mph - N/A   Scattered Clouds
4:15 PM 89.6 °F 93.4 °F 68.0 °F 49% 30.00 in 10.0 mi SSW 10.4 mph - N/A   Scattered Clouds
4:35 PM 87.8 °F 91.4 °F 68.0 °F 52% 29.99 in 10.0 mi South 8.1 mph - N/A   Scattered Clouds
4:55 PM 89.6 °F 93.4 °F 68.0 °F 49% 29.99 in 10.0 mi SSE 6.9 mph - N/A   Clear
5:15 PM 87.8 °F 90.4 °F 66.2 °F 49% 30.00 in 10.0 mi SSE 8.1 mph - N/A   Scattered Clouds
5:35 PM 87.8 °F 91.4 °F 68.0 °F 52% 30.00 in 10.0 mi SE 6.9 mph - N/A   Scattered Clouds
5:55 PM 87.8 °F 91.4 °F 68.0 °F 52% 29.99 in 10.0 mi SSE 6.9 mph - N/A   Scattered Clouds
6:15 PM 86.0 °F 90.4 °F 69.8 °F 58% 29.99 in 10.0 mi SE 5.8 mph - N/A   Scattered Clouds
6:35 PM 86.0 °F 90.4 °F 69.8 °F 58% 29.98 in 10.0 mi SE 5.8 mph - N/A   Scattered Clouds
6:55 PM 82.4 °F 86.3 °F 69.8 °F 66% 29.97 in 10.0 mi SE 9.2 mph - N/A   Scattered Clouds
7:15 PM 82.4 °F 86.3 °F 69.8 °F 66% 29.97 in 10.0 mi SE 8.1 mph - N/A   Clear
7:35 PM 80.6 °F 83.9 °F 69.8 °F 70% 29.98 in 10.0 mi ESE 9.2 mph - N/A   Clear
7:55 PM 80.6 °F 83.9 °F 69.8 °F 70% 29.99 in 10.0 mi SE 10.4 mph - N/A   Clear
8:15 PM 78.8 °F - 68.0 °F 69% 29.99 in 10.0 mi SE 9.2 mph - N/A   Clear
8:35 PM 78.8 °F - 68.0 °F 69% 29.99 in 10.0 mi ESE 10.4 mph - N/A   Clear
8:55 PM 77.0 °F - 68.0 °F 74% 30.00 in 10.0 mi ESE 10.4 mph - N/A   Clear
9:15 PM 77.0 °F - 69.8 °F 78% 30.02 in 10.0 mi ESE 8.1 mph - N/A   Clear
9:35 PM 75.2 °F - 69.8 °F 83% 30.03 in 10.0 mi ESE 12.7 mph - N/A   Clear
9:55 PM 75.2 °F - 68.0 °F 78% 30.03 in 10.0 mi East 9.2 mph - N/A   Clear
10:15 PM 73.4 °F - 68.0 °F 83% 30.04 in 10.0 mi SE 8.1 mph - N/A   Clear
10:35 PM 73.4 °F - 68.0 °F 83% 30.04 in 10.0 mi ESE 10.4 mph - N/A   Clear
10:55 PM 73.4 °F - 66.2 °F 78% 30.05 in 10.0 mi ESE 10.4 mph - N/A   Clear
11:15 PM 73.4 °F - 66.2 °F 78% 30.05 in 10.0 mi ESE 11.5 mph - N/A   Clear
11:35 PM 71.6 °F - 66.2 °F 83% 30.04 in 10.0 mi SE 11.5 mph - N/A   Clear
11:55 PM 71.6 °F - 66.2 °F 83% 30.04 in 10.0 mi SE 11.5 mph - N/A   Clear